CW9861 Weather Reports


time (UTC)temp
F
wind
direction
speed
knots
gust
knots
rain 1hr
in
rain 24hr
in
rain mn
in
humidity
%
barometer
mb
20260508070957 36 22 0.0 1.7 0.00 0.00 0.00 81 1009.9
20260508070457 36 22 0.0 0.0 0.00 0.00 0.00 80 1009.9
20260508065957 36 22 0.0 0.0 0.00 0.00 0.00 80 1010.0
20260508065455 36 22 0.0 0.0 0.00 0.00 0.00 79 1010.0
20260508064955 37 22 0.0 0.0 0.00 0.00 0.00 79 1009.9
20260508064455 37 22 0.0 0.0 0.00 0.00 0.00 79 1009.9
20260508063955 37 22 0.0 0.0 0.00 0.00 0.00 79 1009.8
20260508063455 37 22 0.0 0.0 0.00 0.00 0.00 79 1009.9
20260508062956 37 22 0.0 0.0 0.00 0.00 0.00 79 1009.9
20260508062455 37 22 0.0 0.9 0.00 0.00 0.00 80 1010.0
20260508061955 37 22 0.0 0.9 0.00 0.00 0.00 79 1010.1
20260508061455 38 22 0.0 0.0 0.00 0.00 0.00 79 1010.1
20260508060955 38 22 0.0 0.0 0.00 0.00 0.00 79 1010.0
20260508060456 38 22 0.0 0.0 0.00 0.00 0.00 79 1010.1
20260508055956 38 22 0.0 0.0 0.00 0.00 0.00 78 1010.2
20260508055457 38 22 0.0 0.0 0.00 0.00 0.00 78 1010.2
20260508054957 38 22 0.0 0.0 0.00 0.00 0.00 78 1010.1
20260508054456 38 22 0.0 0.0 0.00 0.00 0.00 78 1010.2
20260508053956 39 22 0.0 0.0 0.00 0.00 0.00 78 1010.1
20260508053456 39 22 0.0 0.0 0.00 0.00 0.00 77 1010.1
20260508052957 39 22 0.0 0.0 0.00 0.00 0.00 77 1010.2
20260508052457 39 22 0.0 0.0 0.00 0.00 0.00 76 1010.2
20260508051956 39 22 0.0 0.0 0.00 0.00 0.00 76 1010.3
20260508051456 39 22 0.0 0.0 0.00 0.00 0.00 76 1010.4
20260508050956 39 22 0.0 0.0 0.00 0.00 0.00 76 1010.5
20260508050456 39 22 0.0 0.0 0.00 0.00 0.00 76 1010.5
20260508045958 39 22 0.0 0.0 0.00 0.00 0.00 76 1010.4
20260508045455 39 22 0.0 0.0 0.00 0.00 0.00 76 1010.4
20260508041956 39 22 0.0 0.0 0.00 0.00 0.00 75 1010.1
20260508041456 39 22 0.0 0.0 0.00 0.00 0.00 75 1010.1
20260508040956 39 22 0.0 0.0 0.00 0.00 0.00 74 1010.1
20260508040457 39 22 0.0 0.0 0.00 0.00 0.00 73 1010.1
20260508035956 39 22 0.0 0.0 0.00 0.00 0.00 73 1010.1
20260508035457 40 22 0.0 0.0 0.00 0.00 0.00 73 1010.1
20260508034956 40 22 0.0 0.0 0.00 0.00 0.00 72 1010.1
20260508034456 40 22 0.0 0.0 0.00 0.00 0.00 71 1010.2
20260508033955 40 22 0.0 0.0 0.00 0.00 0.00 71 1010.2
20260508033456 40 22 0.0 0.0 0.00 0.00 0.00 70 1010.2
20260508032956 40 22 0.0 0.0 0.00 0.00 0.00 70 1010.1
20260508032456 40 22 0.0 0.0 0.00 0.00 0.00 70 1010.1
20260508031956 41 22 0.0 0.0 0.00 0.00 0.00 70 1010.1
20260508031456 41 22 0.0 0.0 0.00 0.00 0.00 70 1010.1
20260508030956 41 22 0.0 0.0 0.00 0.00 0.00 70 1010.1
20260508030456 41 22 0.0 0.0 0.00 0.00 0.00 69 1010.1
20260508025957 42 22 0.0 0.0 0.00 0.00 0.00 67 1010.2
20260508025456 42 22 0.0 0.0 0.00 0.00 0.00 68 1010.2
20260508024956 42 22 0.0 0.0 0.00 0.00 0.00 67 1010.2
20260508024459 42 22 0.0 0.0 0.00 0.00 0.00 66 1010.2
20260508023956 42 22 0.0 0.0 0.00 0.00 0.00 65 1010.2
20260508023456 43 22 0.0 0.0 0.00 0.00 0.00 64 1010.2
20260508022956 43 22 0.0 0.0 0.00 0.00 0.00 64 1010.1
20260508022456 43 22 0.0 0.0 0.00 0.00 0.00 63 1010.1
20260508021956 43 22 0.0 0.0 0.00 0.00 0.00 63 1010.0
20260508021456 43 22 0.0 0.0 0.00 0.00 0.00 63 1010.0
20260508020956 44 22 0.0 1.7 0.00 0.00 0.00 64 1010.0
20260508020456 44 22 0.0 1.7 0.00 0.00 0.00 63 1009.9
20260508015956 44 3 0.0 0.0 0.00 0.00 0.00 58 1009.7
20260508015456 45 3 0.0 0.0 0.00 0.00 0.00 57 1009.8
20260508014957 45 3 0.0 0.0 0.00 0.00 0.00 58 1009.7
20260508011456 48 3 0.0 0.0 0.00 0.00 0.00 50 1009.2
20260508010956 49 3 0.0 0.0 0.00 0.00 0.00 50 1009.1
20260508010456 49 3 0.0 0.0 0.00 0.00 0.00 50 1009.1
20260508005959 50 3 0.0 0.0 0.00 0.00 0.00 50 1009.0
20260508005457 50 3 0.0 0.0 0.00 0.00 0.00 51 1009.0
20260508004957 51 3 0.0 0.0 0.00 0.00 0.00 51 1009.0
20260508004458 51 3 0.0 0.9 0.00 0.00 0.00 50 1008.9
20260508003957 51 3 0.0 2.6 0.00 0.00 0.00 50 1009.1
20260508003456 51 347 0.9 2.6 0.00 0.00 0.00 50 1009.0
20260508002957 51 9 0.0 2.6 0.00 0.00 0.00 51 1009.0
20260508002456 51 340 0.9 2.6 0.00 0.00 0.00 50 1009.0
20260508001956 51 309 0.9 1.7 0.00 0.00 0.00 51 1009.1
20260508001456 51 339 0.9 2.6 0.00 0.00 0.00 50 1008.9
20260508000957 51 323 0.9 2.6 0.00 0.00 0.00 50 1008.8
20260508000457 51 290 0.9 2.6 0.00 0.00 0.00 51 1008.9
20260507235959 51 261 0.9 5.2 0.00 0.00 0.00 51 1008.9
20260507235457 51 322 0.9 5.2 0.00 0.00 0.00 51 1009.0
20260507234957 51 299 1.7 3.5 0.00 0.00 0.00 51 1009.0
20260507234457 51 300 0.9 1.7 0.00 0.00 0.00 51 1009.1
20260507233956 51 283 0.9 3.5 0.00 0.00 0.00 51 1009.2
20260507233458 51 302 1.7 4.3 0.00 0.00 0.00 51 1009.2
20260507232957 51 319 1.7 3.5 0.00 0.00 0.00 50 1009.2
20260507232457 51 332 1.7 3.5 0.00 0.00 0.00 50 1009.3
20260507231957 51 276 1.7 5.2 0.00 0.00 0.00 50 1009.4
20260507231456 51 309 1.7 5.2 0.00 0.00 0.00 49 1009.4
20260507223957 52 314 1.7 5.2 0.00 0.00 0.00 48 1009.6
20260507223456 52 266 1.7 4.3 0.00 0.00 0.00 48 1009.6
20260507222957 53 328 1.7 7.0 0.00 0.00 0.00 48 1009.6
20260507222457 53 276 2.6 8.7 0.00 0.00 0.00 47 1009.6
20260507221957 53 276 2.6 7.0 0.00 0.00 0.00 48 1009.7
20260507221457 54 259 2.6 7.8 0.00 0.00 0.00 46 1009.7
20260507220957 54 259 2.6 8.7 0.00 0.00 0.00 48 1009.7
20260507220458 54 290 3.5 9.6 0.00 0.00 0.00 47 1009.7
20260507215959 52 223 3.5 9.6 0.00 0.00 0.00 48 1009.7
20260507215457 52 266 2.6 7.8 0.00 0.00 0.00 47 1009.7
20260507214956 53 334 1.7 7.8 0.00 0.00 0.00 47 1009.7
20260507214456 54 283 2.6 7.8 0.00 0.00 0.00 44 1009.7
20260507213957 55 282 2.6 9.6 0.00 0.00 0.00 48 1009.7
20260507213457 55 255 4.3 9.6 0.00 0.00 0.00 44 1009.6
20260507212956 54 232 2.6 5.2 0.00 0.00 0.00 47 1009.6
20260507212457 54 291 1.7 5.2 0.00 0.00 0.00 48 1009.6
20260507211956 55 199 2.6 5.2 0.00 0.00 0.00 47 1009.5
20260507211458 54 276 2.6 8.7 0.00 0.00 0.00 44 1009.6
20260507210956 55 271 4.3 13.0 0.00 0.00 0.00 44 1009.7
20260507210457 54 276 4.3 13.0 0.00 0.00 0.00 44 1009.6
20260507205959 55 228 5.2 12.2 0.00 0.00 0.00 45 1009.7
20260507205457 53 247 2.6 10.4 0.00 0.00 0.00 45 1009.8
20260507204956 55 313 4.3 10.4 0.00 0.00 0.00 45 1010.0
20260507204456 56 349 3.5 10.4 0.00 0.00 0.00 45 1010.0
20260507203957 55 324 5.2 10.4 0.00 0.00 0.00 44 1009.9
20260507203456 55 184 3.5 8.7 0.00 0.00 0.00 44 1009.9
20260507202957 53 281 2.6 8.7 0.00 0.00 0.00 46 1009.9
20260507202457 54 324 4.3 12.2 0.00 0.00 0.00 42 1010.0
20260507201956 55 305 4.3 12.2 0.00 0.00 0.00 45 1010.1
20260507201457 54 266 2.6 7.8 0.00 0.00 0.00 45 1010.1
20260507200956 53 257 4.3 9.6 0.00 0.00 0.00 46 1010.2
20260507200456 54 213 5.2 9.6 0.00 0.00 0.00 44 1010.3
20260507195959 54 244 3.5 9.6 0.00 0.00 0.00 43 1010.3
20260507195458 55 258 3.5 11.3 0.00 0.00 0.00 43 1010.4
20260507194957 54 226 5.2 11.3 0.00 0.00 0.00 45 1010.4
20260507194456 55 218 3.5 11.3 0.00 0.00 0.00 43 1010.5
20260507193956 56 241 5.2 10.4 0.00 0.00 0.00 43 1010.5
20260507193457 55 228 2.6 8.7 0.00 0.00 0.00 46 1010.5
20260507192957 54 333 4.3 8.7 0.00 0.00 0.00 45 1010.6
20260507192458 54 314 4.3 13.9 0.00 0.00 0.00 45 1010.6
20260507191956 54 243 6.1 13.9 0.00 0.00 0.00 44 1010.6
20260507191456 55 226 2.6 10.4 0.00 0.00 0.00 45 1010.7
20260507190957 54 238 4.3 11.3 0.00 0.00 0.00 46 1010.8
20260507190457 53 335 5.2 11.3 0.00 0.00 0.00 44 1010.7
20260507185959 52 306 2.6 7.0 0.00 0.00 0.00 48 1010.7
20260507185457 51 303 4.3 11.3 0.00 0.00 0.00 45 1010.9
20260507184957 52 282 4.3 11.3 0.00 0.00 0.00 45 1010.8
20260507184457 53 319 2.6 8.7 0.00 0.00 0.00 45 1010.7
20260507183957 54 229 4.3 10.4 0.00 0.00 0.00 44 1010.6
20260507183458 54 259 5.2 10.4 0.00 0.00 0.00 45 1010.6
20260507182956 54 293 4.3 10.4 0.00 0.00 0.00 44 1010.7
20260507182456 54 294 3.5 12.2 0.00 0.00 0.00 44 1010.6
20260507181957 53 309 6.1 12.2 0.00 0.00 0.00 44 1010.7
20260507181456 54 315 5.2 13.9 0.00 0.00 0.00 42 1010.7
20260507180957 54 224 3.5 13.9 0.00 0.00 0.00 45 1010.6
20260507180457 54 260 2.6 8.7 0.00 0.00 0.00 44 1010.6
20260507175958 55 299 4.3 10.4 0.00 0.00 0.00 47 1010.7
20260507175458 54 250 3.5 12.2 0.00 0.00 0.00 47 1010.7
20260507174956 54 262 5.2 12.2 0.00 0.00 0.00 44 1010.9
20260507174457 55 298 4.3 10.4 0.00 0.00 0.00 45 1011.0
20260507173956 54 293 2.6 12.2 0.00 0.00 0.00 48 1010.9
20260507173457 53 243 3.5 12.2 0.00 0.00 0.00 50 1010.9
20260507172956 52 288 3.5 9.6 0.00 0.00 0.00 48 1011.1
20260507172456 53 311 4.3 13.0 0.00 0.00 0.00 48 1011.2
20260507171958 54 296 4.3 13.0 0.00 0.00 0.00 51 1011.2
20260507171457 53 226 5.2 10.4 0.00 0.00 0.00 50 1011.3
20260507170957 53 297 2.6 11.3 0.00 0.00 0.00 48 1011.3
20260507170457 53 242 5.2 11.3 0.00 0.00 0.00 48 1011.4
20260507165958 53 314 5.2 15.6 0.00 0.00 0.00 47 1011.5
20260507165457 54 312 4.3 11.3 0.00 0.00 0.00 49 1011.7
20260507164956 54 201 6.1 11.3 0.00 0.00 0.00 47 1011.7
20260507164457 53 328 2.6 13.0 0.00 0.00 0.00 50 1011.8
20260507163956 51 262 5.2 13.0 0.00 0.00 0.00 50 1011.8
20260507163458 52 340 4.3 9.6 0.00 0.00 0.00 46 1011.9
20260507162957 53 326 3.5 9.6 0.00 0.00 0.00 50 1011.8
20260507162457 53 218 2.6 7.8 0.00 0.00 0.00 50 1011.9
20260507161957 52 326 3.5 11.3 0.00 0.00 0.00 49 1011.9
20260507161456 51 317 4.3 11.3 0.00 0.00 0.00 52 1012.0
20260507160956 50 328 4.3 13.0 0.00 0.00 0.00 51 1012.0
20260507160456 51 299 3.5 13.0 0.00 0.00 0.00 49 1012.0
20260507155958 51 285 4.3 13.9 0.00 0.00 0.00 50 1012.1
20260507155457 50 252 7.0 13.9 0.00 0.00 0.00 49 1012.0
20260507154956 51 266 3.5 11.3 0.00 0.00 0.00 52 1012.0
20260507154457 50 257 4.3 9.6 0.00 0.00 0.00 52 1012.0
20260507153956 49 197 4.3 10.4 0.00 0.00 0.00 52 1012.0
20260507153456 49 290 6.1 10.4 0.00 0.00 0.00 51 1012.0
20260507152956 50 271 5.2 10.4 0.00 0.00 0.00 51 1012.0
20260507152456 49 286 4.3 10.4 0.00 0.00 0.00 52 1012.0
20260507151956 49 332 4.3 9.6 0.00 0.00 0.00 55 1012.0
20260507151457 50 280 3.5 9.6 0.00 0.00 0.00 51 1012.0
20260507150958 51 280 3.5 8.7 0.00 0.00 0.00 50 1011.9
20260507150457 50 321 2.6 8.7 0.00 0.00 0.00 54 1012.0
20260507145956 49 339 3.5 7.0 0.00 0.00 0.00 55 1011.9
20260507145456 47 261 0.9 8.7 0.00 0.00 0.00 58 1012.0
20260507144957 46 256 3.5 10.4 0.00 0.00 0.00 58 1012.1
20260507144457 47 294 3.5 10.4 0.00 0.00 0.00 57 1012.1
20260507143957 47 286 3.5 11.3 0.00 0.00 0.00 55 1012.0
20260507143456 47 244 2.6 11.3 0.00 0.00 0.00 56 1012.0
20260507142956 47 266 3.5 9.6 0.00 0.00 0.00 53 1012.1
20260507142458 49 315 2.6 9.6 0.00 0.00 0.00 53 1012.1
20260507141958 48 297 3.5 11.3 0.00 0.00 0.00 54 1012.2
20260507141457 50 343 5.2 11.3 0.00 0.00 0.00 51 1012.2
20260507140957 50 314 2.6 9.6 0.00 0.00 0.00 55 1012.2
20260507140457 49 276 3.5 9.6 0.00 0.00 0.00 57 1012.2
20260507135958 48 286 3.5 7.0 0.00 0.00 0.00 58 1012.3
20260507135457 48 318 3.5 8.7 0.00 0.00 0.00 59 1012.2
20260507134957 48 305 2.6 7.8 0.00 0.00 0.00 63 1012.1
20260507134457 48 249 2.6 9.6 0.00 0.00 0.00 61 1012.2
20260507133956 48 271 3.5 11.3 0.00 0.00 0.00 63 1012.3
20260507133458 47 307 3.5 11.3 0.00 0.00 0.00 64 1012.2
20260507132958 47 257 2.6 7.8 0.00 0.00 0.00 66 1012.1
20260507132457 47 220 2.6 7.8 0.00 0.00 0.00 65 1012.2
20260507131957 46 307 2.6 7.0 0.00 0.00 0.00 66 1012.2
20260507131456 46 266 3.5 7.0 0.00 0.00 0.00 66 1012.2
20260507123956 41 222 1.7 4.3 0.00 0.00 0.00 79 1011.9
20260507123457 41 248 0.9 4.3 0.00 0.00 0.00 80 1011.9
20260507122957 40 250 1.7 8.7 0.00 0.00 0.00 81 1011.9
20260507122456 40 259 2.6 8.7 0.00 0.00 0.00 82 1011.9
20260507121956 39 286 1.7 5.2 0.00 0.00 0.00 83 1011.8
20260507121456 38 236 2.6 4.3 0.00 0.00 0.00 84 1011.7
20260507120956 38 284 0.9 2.6 0.00 0.00 0.00 85 1011.9
20260507120456 37 222 0.9 5.2 0.00 0.00 0.00 86 1011.9
20260507115957 36 202 2.6 5.2 0.00 0.00 0.00 86 1011.9
20260507115456 36 301 1.7 3.5 0.00 0.00 0.00 86 1011.8
20260507114956 35 252 1.7 4.3 0.00 0.00 0.00 86 1011.8
20260507114457 34 220 1.7 3.5 0.00 0.00 0.00 86 1011.6
20260507113956 34 233 0.9 2.6 0.00 0.00 0.00 86 1011.6
20260507094958 35 276 0.0 0.0 0.00 0.00 0.00 77 1011.0
20260507094456 35 276 0.0 0.0 0.00 0.00 0.00 77 1011.0
20260507093958 35 276 0.0 0.0 0.00 0.00 0.00 77 1011.0
20260507093456 35 276 0.0 0.0 0.00 0.00 0.00 76 1011.0
20260507092956 36 276 0.0 0.0 0.00 0.00 0.00 76 1011.1
20260507092457 36 276 0.0 0.0 0.00 0.00 0.00 76 1011.1
20260507091957 36 276 0.0 0.0 0.00 0.00 0.00 75 1011.1
20260507091457 36 276 0.0 0.0 0.00 0.00 0.00 75 1011.1
20260507090957 36 276 0.0 0.0 0.00 0.00 0.00 74 1011.2
20260507090456 37 276 0.0 0.0 0.00 0.00 0.00 74 1011.3
20260507085956 37 276 0.0 0.9 0.00 0.00 0.00 74 1011.2
20260507085457 37 276 0.0 0.9 0.00 0.00 0.00 74 1011.2
20260507084956 37 276 0.0 0.9 0.00 0.00 0.00 74 1011.2
20260507084456 37 276 0.0 0.0 0.00 0.00 0.00 74 1011.3
20260507083956 38 276 0.0 0.0 0.00 0.00 0.00 75 1011.3
20260507083456 38 276 0.0 0.0 0.00 0.00 0.00 75 1011.3
20260507082957 38 276 0.0 0.0 0.00 0.00 0.00 74 1011.3
20260507082456 38 276 0.0 0.9 0.00 0.00 0.00 74 1011.3
20260507081957 38 276 0.0 0.9 0.00 0.00 0.00 73 1011.3
20260507073957 40 276 0.0 0.9 0.00 0.00 0.00 69 1011.5
20260507073456 40 276 0.0 0.9 0.00 0.00 0.00 68 1011.4
20260507072957 40 276 0.0 1.7 0.00 0.00 0.00 68 1011.4
20260507072456 41 313 0.9 1.7 0.00 0.00 0.00 68 1011.4
20260507071956 41 312 0.0 3.5 0.00 0.00 0.00 69 1011.3
20260507071456 41 312 0.0 3.5 0.00 0.00 0.00 69 1011.4